User: anonymous   Login
Location: La Bastide
(43.1661°N, 1.2755°E)
Time: 20:23:24
(UTC+00:00)
Language:

Cosmos 1953 Rocket - Orbit

View from above orbital plane
View from above orbital plane
View from above satellite
View from above satellite

Ground track
Ground track

The orbit is defined by the following mean orbital elements,

1 19211U          26039.30575875 +.00000000 +00000-0 +70670-4 0 00001
2 19211  82.5272 126.0026 0021930 139.0723 221.2144 14.85353548    01
Epoch (UTC): 08 February 2026 07:20:17
Eccentricity: 0.0021930
inclination: 82.5272°
perigee height: 597 km
apogee height: 628 km
right ascension of ascending node: 126.0026°
argument of perigee: 139.0723°
revolutions per day: 14.85353548
mean anomaly at epoch: 221.2144°

The dashed part of the orbit path shows where the satellite is in the earth's shadow,  

DLR